Theta_e
339 338 339 341 341 341 341 339 338 336 338 336 337 339 338 336 336 336 337 337 338 341 342 337 334 341 340 339 338 339 339 339 338 336 334 337 340 342 341 336 333 337 342
340 340 340 339 340 341 340 340 340 341 340 340 337 337 339 339 339 340 341 341 340 342 340 333 330 333 334 335 334 333 334 333 333 335 336 341 342 343 343 339 336 336 332
340 342 342 341 340 340 341 340 341 341 341 342 341 337 337 339 340 340 342 341 341 342 334 330 330 332 333 333 331 334 336 331 332 331 335 335 345 344 335 336 337 337 338
338 342 341 340 339 339 340 341 340 342 342 335 335 337 338 338 335 334 340 343 340 333 336 338 336 336 336 332 341 343 342 344 344 342 338 330 329 329 328 330 332 331 333
340 338 341 341 339 339 339 341 341 342 338 334 337 341 338 338 337 340 336 341 334 339 341 334 330 330 331 339 342 344 346 347 346 346 346 340 335 335 336 337 336 336 335
342 340 341 340 339 338 341 342 341 335 334 336 334 333 334 334 336 333 336 332 329 332 330 331 332 331 330 337 342 344 345 345 345 342 344 342 338 338 338 340 338 337 337
343 341 341 340 340 338 339 340 340 335 335 334 333 335 336 334 336 334 331 338 339 332 333 334 334 333 331 333 344 345 346 345 346 343 344 341 336 340 339 339 341 339 340
341 340 341 340 341 338 338 336 333 332 333 333 332 337 337 335 336 335 336 337 335 336 335 337 334 333 331 339 344 346 345 346 348 346 344 344 339 341 341 340 341 341 341
340 339 339 339 339 339 338 338 335 333 333 333 338 337 334 337 336 336 340 340 338 335 337 336 336 335 334 343 346 344 345 345 345 343 344 343 339 341 341 341 341 340 341
340 339 338 339 339 339 339 337 337 334 333 339 338 337 338 335 334 339 340 340 337 336 337 336 332 330 333 341 343 343 344 343 343 344 343 344 340 340 341 341 341 339 341
337 339 338 339 338 338 338 337 337 340 341 338 339 334 331 331 332 335 336 335 337 338 337 332 330 329 331 334 337 343 342 336 334 337 341 342 339 340 340 341 341 338 340
337 338 338 337 337 338 337 337 338 341 340 339 335 332 337 331 333 330 331 332 335 339 333 338 343 345 347 341 339 338 339 334 334 335 340 339 339 339 340 340 340 338 340
339 338 336 336 336 337 338 338 339 340 334 333 340 342 341 339 334 326 326 329 334 335 335 339 342 346 348 347 346 345 345 344 342 340 341 340 341 340 340 341 342 339 338
337 339 338 336 335 337 338 337 338 338 342 341 343 343 342 340 340 342 341 334 334 336 345 346 345 344 345 346 346 344 345 344 344 342 341 343 342 345 341 342 337 335 333
335 335 336 335 335 337 336 337 336 340 342 342 340 341 342 342 343 342 341 343 344 345 338 345 345 345 345 343 343 343 342 343 344 343 342 346 344 340 339 338 334 334 330
333 333 333 332 334 335 337 338 337 333 337 339 343 342 342 342 343 338 342 341 340 343 346 344 347 346 346 346 345 344 341 342 343 344 343 346 345 341 341 339 336 336 335
335 334 335 333 335 337 339 341 343 343 341 338 339 341 344 342 339 342 342 337 344 344 346 348 346 344 340 342 343 344 342 341 344 345 337 344 346 344 340 340 337 337 337
342 342 337 336 338 342 341 341 342 342 341 342 341 338 340 342 337 341 341 339 340 345 346 347 345 343 346 343 342 337 340 336 338 345 342 344 346 345 339 339 338 337 339
341 341 335 341 339 339 340 342 344 343 342 344 343 343 341 338 338 335 343 340 344 344 348 343 348 342 346 345 344 345 345 340 345 346 345 345 344 346 342 339 341 339 339
342 342 342 335 338 340 340 342 344 342 343 344 343 338 337 335 340 336 341 341 341 347 348 347 349 344 348 346 346 343 342 343 344 340 343 346 345 346 344 342 344 344 337
343 343 342 343 342 337 336 341 345 343 344 344 343 344 343 340 342 346 340 341 342 342 346 346 348 343 349 349 346 342 338 342 345 345 346 346 344 343 343 344 343 343 343
343 343 342 344 343 340 337 341 339 344 344 342 345 345 344 342 340 344 348 347 342 339 341 343 342 341 348 350 348 344 343 345 343 343 344 346 345 340 344 346 345 343 344
343 343 341 342 343 342 340 339 341 342 342 344 345 346 345 344 341 341 344 346 341 341 341 346 341 339 346 349 350 348 343 345 345 344 344 345 346 343 345 345 344 344 344
342 343 342 341 342 343 341 340 341 342 343 345 345 345 343 344 345 342 338 338 338 343 338 346 346 350 342 348 348 347 347 349 348 346 346 345 346 346 346 345 342 346 344
342 343 344 342 341 342 342 339 342 345 346 344 344 345 345 345 345 345 343 339 338 338 343 344 348 346 346 348 347 345 346 348 349 347 348 347 347 346 347 346 345 346 346
344 345 346 344 343 342 343 340 340 344 346 343 342 342 343 347 346 347 343 339 338 336 339 344 347 343 347 348 346 342 347 347 348 347 346 346 347 347 347 347 345 347 348
Wind_Speed
18 16 16 16 16 16 14 16 18 18 18 18 18 17 16 16 15 14 13 12 11 11 13 12 12 14 14 14 15 13 12 12 11 9 9 10 11 11 10 10 9 10 10
20 17 16 15 15 15 14 15 16 16 16 15 15 15 15 15 15 14 13 12 12 13 13 11 12 13 14 14 14 14 12 11 11 9 10 8 8 10 9 7 7 8 9
17 17 17 16 16 16 16 15 15 14 13 13 14 14 14 14 14 14 14 14 14 11 11 13 13 15 15 15 15 15 13 12 11 8 6 6 8 6 4 5 6 6 7
14 16 16 16 16 15 15 15 14 14 14 15 14 13 15 14 13 14 14 14 13 13 13 14 14 15 15 15 16 16 14 11 10 9 7 3 3 4 5 7 7 6 6
17 16 14 14 14 15 14 14 15 15 15 14 14 15 17 15 14 14 15 14 13 15 13 13 15 16 16 17 16 12 11 9 6 2 1 4 3 6 6 6 3 5 7
15 16 16 15 15 14 13 14 15 15 16 16 16 17 16 14 15 15 15 14 14 14 14 13 13 14 15 15 14 13 8 6 3 1 3 1 3 6 7 5 1 4 7
13 17 16 15 15 14 13 14 15 16 18 18 17 16 16 15 15 16 15 14 14 14 12 10 10 11 14 17 15 12 7 2 2 4 3 0 5 4 4 3 4 1 4
12 17 16 15 14 14 14 14 16 17 19 18 15 14 17 15 13 15 15 14 13 11 9 8 8 9 12 16 14 8 4 2 5 3 4 3 3 4 3 4 1 3 3
12 16 17 17 15 15 14 15 16 16 18 16 12 16 14 12 12 13 12 11 11 11 9 8 9 11 13 14 10 7 6 4 1 4 6 4 6 4 3 3 2 3 2
10 15 18 16 16 17 16 16 16 17 17 15 18 17 10 11 12 11 10 10 9 10 9 9 11 11 11 13 10 9 5 3 6 7 7 4 7 7 4 3 2 2 2
13 17 18 18 18 17 16 16 16 17 17 18 17 12 11 11 13 11 9 8 8 8 8 9 11 10 9 9 5 5 6 5 4 8 4 6 6 7 4 5 3 2 4
15 22 21 21 18 17 18 17 16 19 18 18 14 14 12 13 13 11 9 7 6 8 10 11 9 7 6 2 4 7 2 7 4 1 2 6 5 4 4 6 4 1 4
14 24 23 21 17 15 15 16 18 23 16 17 17 13 12 11 10 9 7 7 9 9 10 5 1 4 6 4 2 6 6 8 8 2 3 1 1 4 4 7 3 3 5
15 22 22 21 18 15 17 19 20 19 17 18 18 13 10 9 7 8 5 6 7 11 6 4 3 2 3 5 7 4 7 5 6 5 3 8 5 4 5 5 1 5 6
18 17 19 21 20 19 18 16 17 21 17 17 16 13 10 7 4 3 5 6 5 5 9 4 2 5 5 3 4 5 3 5 6 4 4 10 8 6 3 1 5 6 7
18 20 20 19 20 18 16 17 19 18 14 17 12 9 6 5 5 6 3 4 3 10 5 2 5 5 4 7 8 6 5 3 1 2 9 5 4 7 5 5 6 7 7
15 17 17 18 18 16 17 17 16 15 15 16 9 6 3 2 5 4 7 8 11 8 2 3 4 6 5 8 6 8 6 11 8 12 3 4 5 4 6 6 5 5 7
17 15 15 18 17 14 14 13 13 14 14 14 11 9 6 6 5 5 6 9 8 6 3 6 5 2 3 6 5 3 4 9 8 8 1 4 4 2 7 6 6 4 4
17 15 16 18 15 14 15 13 9 11 12 10 10 9 10 5 10 14 8 10 8 5 5 4 3 3 2 5 11 8 8 9 2 2 5 2 3 4 6 4 5 2 3
21 16 17 17 13 15 19 13 9 8 11 12 11 10 9 9 11 17 9 7 3 2 1 1 2 3 3 6 10 9 6 5 3 3 8 1 3 5 5 6 3 4 2
26 22 21 19 16 18 19 17 14 16 12 10 15 10 8 7 8 9 7 6 3 7 7 5 5 6 3 5 9 5 8 1 3 3 1 5 3 2 2 2 3 5 6
30 27 24 20 20 16 20 18 17 19 16 12 15 14 10 7 10 11 8 10 10 10 8 8 6 6 3 1 5 4 2 5 7 8 5 1 5 5 5 3 2 4 3
31 27 26 24 23 19 18 19 20 22 16 14 22 17 11 11 12 13 17 13 9 9 9 5 6 7 6 2 1 3 3 5 4 1 4 3 3 1 4 3 5 2 3
33 29 25 24 24 22 19 20 20 19 19 15 18 18 13 13 11 9 16 17 14 12 9 8 7 7 7 2 4 1 3 5 2 2 2 2 0 4 2 2 5 3 3
32 29 25 25 24 23 22 22 24 18 17 19 18 18 14 15 14 10 12 15 11 11 14 10 8 8 6 6 5 3 1 6 2 1 5 6 3 5 4 1 5 4 2
31 30 30 27 27 23 23 24 28 23 19 21 23 21 22 19 16 14 12 11 10 12 20 14 11 10 8 6 5 5 2 3 5 3 2 4 6 4 8 2 1 6 3
Wind_Direction
146 142 142 142 144 142 140 140 135 133 130 131 133 136 140 139 137 139 143 144 138 134 129 129 133 132 137 136 132 133 138 142 143 136 130 128 132 134 133 137 145 149 150
143 142 145 147 149 146 144 144 144 140 139 136 137 139 138 139 139 139 138 136 132 132 130 128 130 134 130 131 131 133 132 128 124 133 141 141 154 136 131 146 148 148 150
143 140 144 144 146 147 145 151 148 144 142 142 143 142 145 141 138 136 133 134 129 138 128 126 129 128 129 134 133 129 125 125 116 111 130 124 151 149 127 120 145 157 167
154 140 142 148 152 153 150 151 153 155 150 140 137 143 141 136 132 135 139 132 133 132 128 127 126 130 134 136 132 126 129 130 117 106 104 113 163 149 147 146 128 151 173
177 161 158 151 151 153 157 154 158 156 150 148 136 137 134 128 127 126 137 139 136 136 140 133 132 134 139 139 135 133 127 131 143 136 102 69 101 137 126 135 109 154 181
156 168 166 163 160 157 154 159 159 156 150 143 135 132 129 131 129 123 132 136 138 139 134 130 129 132 143 151 149 140 132 129 127 80 204 51 138 171 128 114 97 231 217
158 166 169 165 164 159 156 155 159 156 148 145 141 139 129 124 123 126 130 132 136 135 131 126 125 134 146 161 162 141 133 111 179 166 160 128 188 188 175 164 102 224 259
162 169 167 165 164 162 159 154 156 152 147 146 142 136 130 130 133 128 132 138 140 133 125 115 113 120 143 152 150 132 142 192 224 204 219 235 208 221 237 242 337 45 57
160 167 164 163 158 158 160 159 161 155 156 155 147 142 136 133 131 136 133 137 139 129 122 118 119 119 132 151 145 153 190 237 204 190 217 248 254 253 304 290 305 335 42
183 183 177 170 164 160 156 155 154 153 153 151 150 146 137 131 140 140 129 133 133 130 123 123 119 123 133 151 165 189 172 319 299 270 260 237 237 258 306 294 281 282 262
188 182 177 168 160 156 155 159 156 156 159 154 154 142 144 141 144 134 130 130 133 127 125 131 124 128 137 137 164 205 56 21 13 299 257 264 233 253 295 299 294 208 226
176 175 166 160 160 162 159 156 156 151 155 158 153 133 126 127 126 141 140 145 153 152 145 124 108 93 73 178 217 257 73 337 338 86 220 240 238 270 304 289 311 172 194
157 169 168 163 158 150 157 152 147 149 145 147 138 137 131 118 107 123 128 146 146 144 136 126 81 59 65 5 351 294 293 296 318 132 136 246 201 279 340 314 315 118 149
144 171 173 167 159 148 147 146 149 144 140 139 135 131 122 118 119 106 105 112 127 132 116 94 69 90 41 342 301 291 309 313 314 332 159 59 57 18 18 300 76 115 127
129 142 154 157 155 150 149 154 155 148 133 142 137 142 144 154 168 139 144 144 150 150 133 117 51 39 11 334 331 323 301 292 275 247 273 27 48 60 84 70 108 104 114
143 135 143 152 165 163 149 150 149 156 151 146 149 155 144 171 189 170 164 190 177 146 136 80 353 6 348 300 297 294 309 319 257 46 302 328 67 66 109 99 115 104 103
165 156 153 155 163 160 153 149 148 152 152 158 166 164 200 220 181 170 205 162 142 135 123 22 5 351 310 322 284 272 293 329 298 317 325 114 123 67 99 112 116 110 105
180 182 176 174 171 171 169 166 162 169 164 162 170 184 207 221 225 207 147 177 153 162 103 52 29 45 359 341 18 342 343 327 249 309 169 140 118 101 71 103 115 130 109
173 169 178 185 189 175 178 177 172 175 168 173 192 196 204 190 150 154 154 160 157 161 60 71 62 99 357 350 1 7 338 297 129 195 199 201 147 107 60 86 91 103 149
187 178 175 175 177 192 188 188 194 198 175 190 190 182 183 198 175 175 151 154 181 164 67 181 320 327 356 344 3 349 322 111 95 151 212 269 159 120 61 56 62 87 81
193 190 187 192 188 194 199 201 209 196 197 193 191 175 188 192 195 187 184 195 217 217 226 243 270 267 304 356 1 60 81 193 139 41 173 181 152 224 272 98 111 102 87
194 195 193 202 194 199 201 205 201 187 201 200 198 192 201 227 221 222 223 233 226 220 237 241 254 241 262 332 9 348 140 104 84 62 134 347 1 5 224 248 231 126 73
198 197 199 203 203 206 209 201 194 204 199 202 185 198 208 229 227 229 222 229 236 249 232 231 228 213 229 242 29 2 7 38 126 173 164 279 292 158 69 232 241 155 53
203 200 213 212 212 218 214 211 207 204 209 213 210 205 231 223 227 240 229 235 244 244 239 235 219 202 204 173 177 162 25 350 16 21 235 133 93 249 234 322 185 168 53
205 209 217 221 221 223 223 223 211 219 236 228 219 227 213 215 220 242 216 226 230 234 226 231 224 217 208 199 177 229 270 70 84 10 86 56 65 168 226 357 189 164 65
210 216 214 220 227 229 227 222 213 219 231 228 235 233 218 220 226 244 222 216 226 241 218 220 216 218 226 231 225 239 234 86 84 82 38 46 52 136 194 141 215 173 229